DM3DP Weather Reports


Display with metric or nautical units.
time (UTC)temp
F
wind
direction
speed
MPH
gust
MPH
rain 1hr
in
rain 24hr
in
rain mn
in
humidity
%
barometer
mb
20260502140103 72 269 3.0 7.0 0.00 0.00 0.00 55 1015.1
20260502130603 78 205 5.0 18.0 0.00 0.00 0.00 47 1014.9
20260502123303 80 222 2.0 4.0 0.00 0.00 0.00 42 1015.4
20260502122733 80 208 2.0 7.0 0.00 0.00 0.00 42 1015.4
20260502122203 80 224 0.0 1.0 0.00 0.00 0.00 42 1015.5
20260502121633 80 194 0.0 2.0 0.00 0.00 0.00 43 1015.6
20260502121103 80 186 4.0 9.0 0.00 0.00 0.00 44 1015.7
20260502120533 79 200 2.0 4.0 0.00 0.00 0.00 43 1015.8
20260502115433 79 184 1.0 6.0 0.00 0.00 0.00 46 1016.1
20260502114903 79 160 4.0 16.0 0.00 0.00 0.00 44 1016.2
20260502114334 78 227 4.0 7.0 0.00 0.00 0.00 45 1016.2
20260502113803 78 150 2.0 5.0 0.00 0.00 0.00 43 1016.3
20260502113233 78 179 2.0 4.0 0.00 0.00 0.00 43 1016.3
20260502112704 78 209 2.0 6.0 0.00 0.00 0.00 44 1016.4
20260502112133 78 197 2.0 9.0 0.00 0.00 0.00 43 1016.5
20260502111603 78 194 1.0 2.0 0.00 0.00 0.00 43 1016.6
20260502111034 77 129 0.0 3.0 0.00 0.00 0.00 45 1016.6
20260502110503 77 139 1.0 2.0 0.00 0.00 0.00 45 1016.6
20260502105933 77 107 3.0 8.0 0.00 0.00 0.00 45 1016.6
20260502105403 77 190 2.0 7.0 0.00 0.00 0.00 46 1016.9
20260502104834 77 181 3.0 7.0 0.00 0.00 0.00 46 1017.0
20260502104303 77 191 0.0 0.0 0.00 0.00 0.00 46 1017.0
20260502103733 76 240 4.0 18.0 0.00 0.00 0.00 47 1017.0
20260502103203 75 274 1.0 3.0 0.00 0.00 0.00 45 1017.0
20260502102633 75 223 4.0 7.0 0.00 0.00 0.00 48 1017.1
20260502102103 75 202 3.0 4.0 0.00 0.00 0.00 48 1017.2
20260502101534 74 220 1.0 2.0 0.00 0.00 0.00 46 1017.4
20260502101003 74 251 1.0 5.0 0.00 0.00 0.00 46 1017.5
20260502100433 74 261 2.0 5.0 0.00 0.00 0.00 48 1017.6
20260502091503 71 234 1.0 2.0 0.00 0.00 0.00 50 1018.0
20260502090933 71 214 2.0 5.0 0.00 0.00 0.00 49 1018.0
20260502090403 70 205 2.0 7.0 0.00 0.00 0.00 52 1018.0
20260502071403 62 252 2.0 4.0 0.00 0.00 0.00 60 1018.3
20260502070833 63 295 1.0 5.0 0.00 0.00 0.00 59 1018.3
20260502070303 63 278 1.0 2.0 0.00 0.00 0.00 59 1018.3
20260502065733 63 272 2.0 3.0 0.00 0.00 0.00 59 1018.3
20260502065203 63 270 3.0 9.0 0.00 0.00 0.00 59 1018.3
20260502064633 62 247 2.0 4.0 0.00 0.00 0.00 60 1018.3
20260502064103 60 281 4.0 14.0 0.00 0.00 0.00 63 1018.3
20260502063533 60 255 2.0 6.0 0.00 0.00 0.00 63 1018.3
20260502063003 60 293 4.0 6.0 0.00 0.00 0.00 63 1018.3
20260502062433 60 268 5.0 15.0 0.00 0.00 0.00 63 1018.3
20260502061903 60 238 3.0 13.0 0.00 0.00 0.00 63 1018.3
20260502061333 60 287 2.0 7.0 0.00 0.00 0.00 63 1018.4
20260502060803 60 210 4.0 9.0 0.00 0.00 0.00 63 1018.5
20260502060233 60 263 4.0 6.0 0.00 0.00 0.00 63 1018.6
20260502055703 60 251 2.0 7.0 0.00 0.00 0.00 64 1018.6
20260502055134 60 251 4.0 6.0 0.00 0.00 0.00 62 1018.6
20260502054603 61 242 3.0 5.0 0.00 0.00 0.00 62 1018.6
20260502054034 60 250 3.0 7.0 0.00 0.00 0.00 66 1018.5
20260502053503 58 245 2.0 5.0 0.00 0.00 0.00 65 1018.5
20260502052933 58 261 3.0 8.0 0.00 0.00 0.00 65 1018.3
20260502052403 58 255 3.0 7.0 0.00 0.00 0.00 65 1018.3
20260502051833 56 261 4.0 11.0 0.00 0.00 0.00 70 1018.3
20260502051303 51 225 2.0 8.0 0.00 0.00 0.00 74 1018.3
20260502050734 51 263 2.0 4.0 0.00 0.00 0.00 75 1018.2
20260502050203 51 256 2.0 5.0 0.00 0.00 0.00 75 1018.2
20260502045633 50 273 2.0 4.0 0.00 0.00 0.00 75 1018.2
20260502045103 50 231 2.0 3.0 0.00 0.00 0.00 75 1018.2
20260502044533 50 255 3.0 12.0 0.00 0.00 0.00 75 1018.2
20260502044003 50 247 1.0 2.0 0.00 0.00 0.00 76 1018.2
20260502043434 49 261 3.0 7.0 0.00 0.00 0.00 76 1018.2
20260502042903 49 251 2.0 5.0 0.00 0.00 0.00 76 1018.2
20260502042334 49 295 1.0 5.0 0.00 0.00 0.00 77 1018.3
20260502041803 49 218 4.0 8.0 0.00 0.00 0.00 77 1018.3
20260502041234 49 269 0.0 1.0 0.00 0.00 0.00 77 1018.3
20260502040703 49 248 1.0 4.0 0.00 0.00 0.00 77 1018.4
20260502040133 49 228 3.0 7.0 0.00 0.00 0.00 77 1018.4
20260502035603 49 271 1.0 5.0 0.00 0.00 0.00 78 1018.5
20260502035034 49 241 2.0 4.0 0.00 0.00 0.00 78 1018.6
20260502034503 49 245 2.0 9.0 0.00 0.00 0.00 79 1018.5
20260502033933 49 220 2.0 5.0 0.00 0.00 0.00 79 1018.5
20260502033403 49 238 2.0 4.0 0.00 0.00 0.00 78 1018.5
20260502032834 49 196 1.0 3.0 0.00 0.00 0.00 78 1018.7
20260502032305 49 244 2.0 4.0 0.00 0.00 0.00 79 1018.7
20260502031733 49 233 1.0 4.0 0.00 0.00 0.00 79 1018.7
20260502031203 49 271 0.0 1.0 0.00 0.00 0.00 79 1018.8
20260502030634 48 238 1.0 2.0 0.00 0.00 0.00 79 1018.8
20260502030103 48 277 1.0 2.0 0.00 0.00 0.00 79 1018.8
20260502025533 48 256 2.0 3.0 0.00 0.00 0.00 80 1018.8
20260502025003 48 232 1.0 4.0 0.00 0.00 0.00 80 1018.8
20260502024433 48 236 2.0 6.0 0.00 0.00 0.00 80 1018.9
20260502023903 48 267 1.0 2.0 0.00 0.00 0.00 80 1018.9
20260502023333 48 233 2.0 7.0 0.00 0.00 0.00 80 1018.9
20260502022804 48 222 1.0 1.0 0.00 0.00 0.00 80 1018.9
20260502022233 48 220 1.0 2.0 0.00 0.00 0.00 80 1018.9
20260502021703 48 214 1.0 1.0 0.00 0.00 0.00 79 1018.9
20260502021133 48 246 2.0 7.0 0.00 0.00 0.00 79 1018.9
20260502020604 48 240 1.0 2.0 0.00 0.00 0.00 79 1018.9
20260502015724 49 230 1.0 2.0 0.00 0.00 0.00 79 1018.9
20260502015155 49 227 1.0 3.0 0.00 0.00 0.00 79 1019.0
20260502014624 49 269 1.0 4.0 0.00 0.00 0.00 78 1019.0
20260502014054 49 259 1.0 2.0 0.00 0.00 0.00 78 1019.1
20260502013524 49 257 0.0 0.0 0.00 0.00 0.00 78 1019.1
20260502012954 49 227 0.0 0.0 0.00 0.00 0.00 77 1019.2
20260502012424 49 261 0.0 1.0 0.00 0.00 0.00 77 1019.2
20260502011854 49 227 0.0 1.0 0.00 0.00 0.00 77 1019.3
20260502011324 50 261 0.0 0.0 0.00 0.00 0.00 77 1019.3
20260502010754 50 227 0.0 2.0 0.00 0.00 0.00 77 1019.3
20260502010110 50 295 1.0 2.0 0.00 0.00 0.00 77 1019.4
20260502005531 50 208 0.0 0.0 0.00 0.00 0.00 76 1019.5
20260502005001 50 182 1.0 2.0 0.00 0.00 0.00 76 1019.6
20260502004431 50 220 1.0 2.0 0.00 0.00 0.00 76 1019.7
20260502003901 50 275 0.0 0.0 0.00 0.00 0.00 75 1019.7
20260502003331 50 227 0.0 1.0 0.00 0.00 0.00 75 1019.7
20260502002801 51 295 0.0 1.0 0.00 0.00 0.00 74 1019.8
20260502002231 51 295 1.0 1.0 0.00 0.00 0.00 74 1019.8
20260502001701 51 295 1.0 3.0 0.00 0.00 0.00 74 1019.8
20260502001131 51 259 0.0 0.0 0.00 0.00 0.00 73 1019.9
20260502000601 51 224 0.0 0.0 0.00 0.00 0.00 73 1020.0
20260502000031 52 181 0.0 0.0 0.00 0.00 0.00 73 1020.0
20260501235501 52 167 0.0 0.0 0.00 0.00 0.00 73 1020.0
20260501234931 52 201 1.0 1.0 0.00 0.00 0.00 72 1020.1
20260501234401 52 283 1.0 1.0 0.00 0.00 0.00 72 1020.2
20260501233832 52 167 1.0 1.0 0.00 0.00 0.00 72 1020.2
20260501233301 52 171 2.0 2.0 0.00 0.00 0.00 72 1020.2
20260501232732 53 182 0.0 0.0 0.00 0.00 0.00 71 1020.3
20260501232202 53 176 1.0 3.0 0.00 0.00 0.00 71 1020.3
20260501231631 53 189 2.0 2.0 0.00 0.00 0.00 71 1020.3
20260501231101 53 205 1.0 2.0 0.00 0.00 0.00 71 1020.3
20260501230531 53 268 2.0 2.0 0.00 0.00 0.00 70 1020.3
20260501230001 53 264 2.0 3.0 0.00 0.00 0.00 70 1020.3
20260501225432 54 335 1.0 3.0 0.00 0.00 0.00 70 1020.3
20260501224901 54 335 2.0 3.0 0.00 0.00 0.00 70 1020.4
20260501224331 54 272 1.0 3.0 0.00 0.00 0.00 70 1020.4
20260501223801 54 330 3.0 3.0 0.00 0.00 0.00 69 1020.4
20260501223231 54 273 2.0 5.0 0.00 0.00 0.00 67 1020.4
20260501222701 54 301 1.0 4.0 0.00 0.00 0.00 67 1020.4
20260501222131 54 294 1.0 1.0 0.00 0.00 0.00 67 1020.4
20260501221602 54 340 1.0 2.0 0.00 0.00 0.00 67 1020.4
20260501221031 55 324 3.0 9.0 0.00 0.00 0.00 67 1020.5
20260501220501 55 340 2.0 4.0 0.00 0.00 0.00 66 1020.5
20260501215931 55 340 0.0 0.0 0.00 0.00 0.00 66 1020.5
20260501215401 56 272 0.0 0.0 0.00 0.00 0.00 64 1020.5
20260501214831 56 272 0.0 0.0 0.00 0.00 0.00 64 1020.5
20260501214301 56 283 0.0 0.0 0.00 0.00 0.00 64 1020.5
20260501213731 56 272 0.0 0.0 0.00 0.00 0.00 63 1020.5
20260501213202 56 272 0.0 0.0 0.00 0.00 0.00 63 1020.5
20260501212631 56 200 0.0 0.0 0.00 0.00 0.00 63 1020.5
20260501212101 57 244 0.0 0.0 0.00 0.00 0.00 62 1020.5
20260501211532 57 273 0.0 0.0 0.00 0.00 0.00 61 1020.5
20260501211001 57 287 0.0 0.0 0.00 0.00 0.00 61 1020.5
20260501210431 57 272 8.0 62.0 0.00 0.00 0.00 59 1020.5
20260501205901 57 187 6.0 53.0 0.00 0.00 0.00 59 1020.5
20260501205331 58 267 1.0 53.0 0.00 0.00 0.00 59 1020.5
20260501204801 58 242 0.0 0.0 0.00 0.00 0.00 58 1020.5
20260501204231 59 253 0.0 0.0 0.00 0.00 0.00 57 1020.5
20260501203701 59 261 0.0 0.0 0.00 0.00 0.00 57 1020.5
20260501203132 59 272 0.0 0.0 0.00 0.00 0.00 56 1020.5
20260501202601 60 234 0.0 0.0 0.00 0.00 0.00 55 1020.5
20260501202032 60 272 0.0 0.0 0.00 0.00 0.00 55 1020.6
20260501201501 60 272 0.0 0.0 0.00 0.00 0.00 54 1020.6
20260501200931 61 301 2.0 3.0 0.00 0.00 0.00 53 1020.6
20260501200401 61 165 0.0 0.0 0.00 0.00 0.00 53 1020.5
20260501195831 61 167 0.0 0.0 0.00 0.00 0.00 53 1020.5
20260501195305 62 295 2.0 4.0 0.00 0.00 0.00 52 1020.5
20260501194731 62 179 0.0 0.0 0.00 0.00 0.00 52 1020.5
20260501194201 62 216 0.0 0.0 0.00 0.00 0.00 51 1020.5
20260501193631 63 245 1.0 3.0 0.00 0.00 0.00 50 1020.5
20260501193101 64 227 1.0 2.0 0.00 0.00 0.00 49 1020.5
20260501192531 64 175 1.0 2.0 0.00 0.00 0.00 48 1020.5
20260501192001 65 179 2.0 4.0 0.00 0.00 0.00 47 1020.5
20260501191431 65 167 3.0 5.0 0.00 0.00 0.00 47 1020.5
20260501190901 66 205 2.0 3.0 0.00 0.00 0.00 46 1020.5
20260501190331 66 193 1.0 2.0 0.00 0.00 0.00 45 1020.4
20260501185801 67 184 2.0 3.0 0.00 0.00 0.00 43 1020.4
20260501185232 67 320 2.0 3.0 0.00 0.00 0.00 43 1020.5
20260501184701 68 295 2.0 5.0 0.00 0.00 0.00 42 1020.5
20260501184131 69 294 0.0 0.0 0.00 0.00 0.00 37 1020.5
20260501183602 69 288 0.0 0.0 0.00 0.00 0.00 37 1020.4
20260501183031 71 277 1.0 2.0 0.00 0.00 0.00 37 1020.3
20260501181931 72 267 2.0 4.0 0.00 0.00 0.00 36 1020.3
20260501181401 72 279 1.0 3.0 0.00 0.00 0.00 36 1020.3
20260501180832 73 274 2.0 5.0 0.00 0.00 0.00 35 1020.3
20260501180301 73 262 2.0 4.0 0.00 0.00 0.00 35 1020.3
20260501175731 73 257 4.0 15.0 0.00 0.00 0.00 34 1020.3
20260501175201 73 270 2.0 15.0 0.00 0.00 0.00 34 1020.3
20260501174632 73 259 2.0 4.0 0.00 0.00 0.00 34 1020.3
20260501174101 73 247 5.0 21.0 0.00 0.00 0.00 34 1020.3
20260501173531 72 272 3.0 15.0 0.00 0.00 0.00 32 1020.3
20260501173001 72 284 2.0 5.0 0.00 0.00 0.00 32 1020.3
20260501172431 72 279 4.0 12.0 0.00 0.00 0.00 32 1020.3
20260501171901 72 264 2.0 10.0 0.00 0.00 0.00 30 1020.3
20260501171332 72 243 4.0 14.0 0.00 0.00 0.00 30 1020.3
20260501170801 72 234 2.0 5.0 0.00 0.00 0.00 29 1020.4
20260501170231 72 231 5.0 12.0 0.00 0.00 0.00 28 1020.3
20260501165702 72 187 3.0 4.0 0.00 0.00 0.00 29 1020.3
20260501165131 72 170 4.0 11.0 0.00 0.00 0.00 29 1020.3
20260501164601 72 160 3.0 9.0 0.00 0.00 0.00 29 1020.3
20260501164031 73 171 1.0 2.0 0.00 0.00 0.00 29 1020.5
20260501163501 73 164 5.0 16.0 0.00 0.00 0.00 29 1020.5
20260501162931 73 152 7.0 35.0 0.00 0.00 0.00 29 1020.5
20260501162401 73 168 2.0 13.0 0.00 0.00 0.00 31 1020.5
20260501161831 73 171 5.0 12.0 0.00 0.00 0.00 31 1020.6
20260501161301 73 160 4.0 17.0 0.00 0.00 0.00 30 1020.6
20260501160731 74 182 5.0 20.0 0.00 0.00 0.00 30 1020.6
20260501160201 74 167 6.0 21.0 0.00 0.00 0.00 30 1020.6
20260501155631 74 163 5.0 37.0 0.00 0.00 0.00 31 1020.6
20260501155101 74 166 8.0 36.0 0.00 0.00 0.00 30 1020.7
20260501154531 74 234 3.0 26.0 0.00 0.00 0.00 30 1020.8
20260501154001 74 236 7.0 34.0 0.00 0.00 0.00 31 1020.9
20260501153431 74 234 4.0 12.0 0.00 0.00 0.00 30 1020.9
20260501152901 74 297 4.0 12.0 0.00 0.00 0.00 30 1021.0
20260501152331 74 264 5.0 22.0 0.00 0.00 0.00 31 1021.2
20260501151801 75 259 3.0 11.0 0.00 0.00 0.00 31 1021.2
20260501151231 75 255 5.0 12.0 0.00 0.00 0.00 30 1021.2
20260501150701 75 250 4.0 8.0 0.00 0.00 0.00 30 1021.3
20260501150131 75 297 2.0 7.0 0.00 0.00 0.00 30 1021.3